LIMJLFKB

Guest
Details From LIMJ - Genova Sestri
To LFKB - Bastia Poretta
Flight Number -
Tags generated
Created
Modified
Stats Distance 115 nm / 213 km
Max Altitude 0 ft / 0 m
Waypoints 2
Social Downloads 0
Likes 0
Share VATSIM

Download

Looking for another format? Having issues loading an existing format? Contact us
Advertisement - Login to hide

Notes

Basic altitude profile: - Ascent Rate: 2500ft/min - Ascent Speed: 250kts - Cruise Altitude: 35000ft - Cruise Speed: 420kts - Descent Rate: 1500ft/min - Descent Speed: 250kts Options: - Use NATs: yes - Use PACOTS: no - Use low airways: no - Use high airways: no

Route

LIMJ LFKB

ID Type Via Altitude Latitude Longitude Leg Dist Tot Dist Heading (true) Name
O LIMJ APT - 0 ft / 0 m 44.41196˚ 8.84187˚ - 0 nm - Genova Sestri
O LFKB APT - 0 ft / 0 m 42.55251˚ 9.48371˚ 115 nm 115 nm 166° / 166° Bastia Poretta

Altitude Profile

Advertisement - Login to hide

LIMJ

Details ICAO LIMJ (GOA)
Name Genova Sestri
Region Italy
Timezone Unknown (UTC+0.0)
Stats Elevation 13 ft / 4 m (AMSL)
Location 44.411957° 8.841866°
Runways 1
Magnetic Variation 2.387° E

METAR

LIMJ 120250Z 26005KT 230V330 5000 BR SCT010 BKN035 13/09 Q1002

Decode

TAF

TAF LIMJ 112300Z 1200/1224 21015G35KT 3000 RA BKN020 BKN050 BECMG 1200/1202 8000 NSW BECMG 1212/1214 20012KT

Decode

Departure Runways

ID Width Length Bearing (true) Bearing (mag) Surface Threshold Offset Overrun Length
10 148 ft / 45 m 9,574 ft / 2,918 m 105.39° 103.00° Asphalt 0 ft / 0 m 0 ft / 0 m
28 148 ft / 45 m 9,574 ft / 2,918 m 285.41° 283.02° Asphalt 538 ft / 164 m 0 ft / 0 m

LFKB

Details ICAO LFKB (BIA)
Name Bastia Poretta
Region France
Timezone Europe/Paris (UTC+1.0)
Stats Elevation 25 ft / 8 m (AMSL)
Location 42.552508° 9.483709°
Runways 1
Magnetic Variation 2.484° E

METAR

LFKB 120300Z 19010KT 140V220 9999 FEW033 BKN100 15/08 Q1004 NOSIG

Decode

TAF

TAF AMD LFKB 120259Z 1203/1303 VRB05KT 9999 FEW030 BKN070 TEMPO 1203/1206 21015G25KT RA BKN015 FEW025TCU TEMPO 1206/1215 RA BKN015 FEW025TCU TX15/1212Z TN10/1203Z

Decode

Destination Runways

ID Width Length Bearing (true) Bearing (mag) Surface Threshold Offset Overrun Length
16 148 ft / 45 m 8,273 ft / 2,522 m 162.83° 160.35° Concrete 0 ft / 0 m 131 ft / 40 m
34 148 ft / 45 m 8,273 ft / 2,522 m 342.84° 340.36° Concrete 0 ft / 0 m 0 ft / 0 m

Approach Navaids

Runway Type Ident Frequency Range Bearing (true) Bearing (mag) Slope Elevation
34 Localiser BP 111.35 MHz 27 nm / 50 km 342.81° 340.33° - 25 ft / 8 m (AMSL)
34 Glidescope BP 111.35 MHz 27 nm / 50 km 342.81° 340.33° 3.00° 25 ft / 8 m (AMSL)
34 DME BP 111.35 MHz 18 nm / 33 km - - - 69 ft / 21 m (AMSL)

Popular Alternatives